Location: *
(51.8850°N, 0.2350°E)
Time: 00:33:13
(UTC+00:00)

Daily predictions for brighter satellites

Satellite Brightness Start Highest point End
(mag) Time Altitude Azimuth Time Altitude Azimuth Time Altitude Azimuth
Cosmos 1844 Rocket 4.1 00:17:23 35° NNE 00:17:23 35° NNE 00:20:33 10° NNE
Cosmos 2082 Rocket 3.5 00:12:53 10° NNW 00:16:43 37° N 00:16:43 37° N
CZ-4C R/B 3.8 00:12:49 10° NW 00:16:45 37° WNW 00:16:45 37° WNW
SL-16 R/B 3.7 00:21:57 35° ENE 00:22:12 35° ENE 00:27:46 10° N
Cosmos 2263 Rocket 4.1 00:48:21 21° NW 00:49:04 21° NNW 00:53:22 10° NNE
USA 267 3.5 00:44:32 10° ENE 00:50:26 65° NNE 00:50:26 65° NNE
Resurs 1-4 Rocket 3.9 00:50:54 10° NE 00:54:07 24° ENE 00:54:07 24° ENE
SJ 16-02 3.9 00:51:28 10° NNW 00:52:49 18° N 00:52:49 18° N
Cosmos 1833 Rocket 4.4 00:54:28 10° NNW 00:56:41 25° NW 00:56:41 25° NW
ATLAS CENTAUR R/B 3.9 01:02:00 21° NNW 01:02:00 21° NNW 01:05:28 10° NNE
Cosmos 2278 Rocket 3.2 01:05:11 41° NE 01:05:11 41° NE 01:08:55 10° NE
H-2A R/B 4.4 01:20:15 19° N 01:20:15 19° N 01:21:36 10° N
Lacrosse 5 3.4 01:20:30 33° NE 01:20:30 33° NE 01:23:35 10° ENE
CZ-2D R/B 3.1 01:26:06 10° NNE 01:30:10 42° ENE 01:30:10 42° ENE
ATLAS 5 CENTAUR R/B 3.1 01:37:32 36° NE 01:37:32 36° NE 01:40:37 10° NE
Tsikada Rocket 4.1 01:40:26 71° NNE 01:40:26 71° NNE 01:45:54 10° N
NOSS 3-3 (A) 4.4 01:38:23 10° NW 01:45:41 81° NE 01:53:51 10° SE
NOSS 3-3 (C) 4.4 01:38:29 10° NW 01:45:47 81° NE 01:53:56 10° SE
CZ-4B R/B 4.3 01:50:51 18° NE 01:50:51 18° NE 01:52:28 10° NNE
Cosmos 2279 Rocket 4.3 01:46:49 10° N 01:53:02 63° ENE 01:53:55 57° ESE
SL-08 R/B 4.2 01:55:16 47° NNE 01:55:16 47° NNE 01:58:51 10° N
BREEZE-M DEB (TANK) 4.4 02:00:03 39° SE 02:00:03 39° SE 02:10:20 10° E
Cosmos 1844 Rocket 4.3 01:59:03 23° NW 01:59:37 23° NW 02:04:07 10° NNE
Cosmos 1634 Rocket 4.0 01:53:52 10° NNW 01:59:41 73° NW 01:59:41 73° NW
NOSS 3-2 (A) 4.3 02:00:54 37° SE 02:01:10 37° ESE 02:07:05 10° NE
Cosmos 2082 Rocket 4.2 01:57:13 10° NW 01:58:31 17° NW 01:58:31 17° NW
CBERS-1 4.4 01:58:29 10° NNE 02:03:01 59° ENE 02:03:01 59° ENE
SL-16 R/B 3.1 02:07:04 45° NW 02:07:04 45° NW 02:11:44 10° NNW
ATLAS 3B R/B 4.2 02:04:50 20° SE 02:06:47 23° ESE 02:11:46 10° ENE
Cosmos 2297 3.7 02:11:47 74° E 02:11:47 74° E 02:17:17 10° NNE
Cosmos 2150 Rocket 4.4 02:09:05 10° NNW 02:13:24 57° NNW 02:13:24 57° NNW
Cosmos 841 Rocket 3.7 02:16:29 62° E 02:16:29 62° E 02:21:22 10° NNE
IRS-P3 4.3 02:11:09 10° NNE 02:16:29 66° ESE 02:16:34 66° ESE
Cosmos 2084 4.5 02:19:12 45° ENE 02:19:12 45° ENE 02:22:26 10° NE
BREEZE-M DEB (TANK) 4.1 02:20:27 58° SSE 02:20:27 58° SSE 02:31:29 10° ESE
Cosmos 1606 4.3 02:21:29 35° ENE 02:21:29 35° ENE 02:24:16 10° NNE
ADEOS II 2.8 02:17:21 10° NNE 02:22:27 47° E 02:23:23 42° SE
Cosmos 2369 Rocket 3.6 02:22:09 27° SE 02:23:49 31° ESE 02:28:45 10° NE
Cosmos 1933 4.5 02:25:35 43° NE 02:25:35 43° NE 02:28:29 10° NNE
Cosmos 2208 Rocket 4.0 02:26:11 79° N 02:26:11 79° N 02:31:13 10° NNE
Cosmos 1869 Rocket 4.1 02:29:15 10° N 02:33:42 58° ENE 02:33:58 57° E
USA 267 3.7 02:27:20 10° E 02:33:43 58° N 02:37:45 24° WNW
Resurs 1-4 Rocket 2.4 02:30:21 10° N 02:35:11 55° NW 02:35:11 55° NW
Meteor 1-20 Rocket 4.1 02:31:58 10° NNW 02:37:29 81° ENE 02:38:54 51° SSE
Gbstr 26 Del rocket 4.4 02:34:50 42° W 02:38:02 90° N 02:46:04 10° E
IRS-1D 3.4 02:33:51 10° NNE 02:39:15 80° WNW 02:39:29 78° WSW
ATLAS CENTAUR R/B 4.2 02:39:07 10° NW 02:42:22 18° N 02:45:30 10° NE
SL-4 R/B 4.1 02:46:33 16° ESE 02:46:33 16° ESE 02:47:23 10° ESE
deb Chang Zheng 4 3.7 02:39:34 10° NNE 02:43:39 75° NNE 02:43:39 75° NNE
Cosmos 2278 Rocket 3.3 02:47:02 30° WNW 02:47:50 31° NW 02:52:51 10° NNE
CENTAUR R/B 3.6 02:45:29 27° SSE 02:48:03 37° ESE 02:54:23 10° NE
IRIDIUM 114 4.3 02:49:11 56° SSE 02:50:18 80° E 02:55:33 10° N
Meteor 1-28 Rocket 4.1 02:50:55 42° ESE 02:51:37 48° ENE 02:55:17 10° N
ERS-1 4.4 02:46:42 10° NNE 02:51:50 84° ESE 02:52:44 62° S
Cosmos 1570 Rocket 4.4 02:55:19 46° WNW 02:55:35 46° WNW 03:00:43 10° NNE
Cosmos 1602 4.3 02:52:05 10° N 02:56:00 58° ENE 02:56:39 50° ESE
IRIDIUM 103 4.2 02:58:18 56° S 02:59:28 87° W 03:04:44 10° N
SME Rocket 4.1 02:53:14 10° NNE 03:00:51 59° WNW 03:02:06 49° WSW
Cosmos 540 Rocket 3.3 03:01:31 64° WSW 03:02:10 73° WNW 03:07:22 10° NNE
Lacrosse 5 2.3 02:59:43 28° NW 03:02:17 61° NNE 03:07:17 10° E
Cosmos 2228 Rocket 3.2 03:03:54 59° WNW 03:03:54 59° WNW 03:08:09 10° N
Timation 2 Rocket 4.4 02:58:38 10° NNW 03:04:41 59° NE 03:10:34 10° SE
Cosmos 1151 Rocket 4.4 03:07:00 26° NW 03:07:00 26° NW 03:09:46 10° N
USA 238 DEB 3.6 03:04:50 44° SW 03:07:14 87° NW 03:14:16 10° NE
USA 238 3.6 03:04:55 44° SW 03:07:19 87° NW 03:14:23 10° NE
Cosmos 1763 Rocket 4.2 03:06:48 37° WNW 03:07:21 38° NW 03:12:21 10° NNE
Cosmos 1782 3.1 03:06:43 52° SE 03:07:22 61° E 03:11:18 10° NNE
Cosmos 2344 3.7 03:04:08 36° SSW 03:07:35 75° SE 03:16:05 10° NE
CZ-2D R/B 3.3 03:04:45 10° NNE 03:08:50 78° ESE 03:09:14 68° SSE
Cosmos 1943 Rocket 2.3 03:08:01 40° S 03:09:59 70° ESE 03:15:33 10° NE
CZ-2D R/B 3.0 03:06:29 10° N 03:11:08 32° WNW 03:11:29 32° WNW
ARIANE 5 R/B 2.4 03:06:01 10° NNE 03:11:10 74° WNW 03:12:21 52° SW
NPP 4.5 03:06:52 10° N 03:11:40 33° WNW 03:12:11 33° WNW
Lacrosse 5 rocket 3.2 03:15:00 20° SSE 03:15:00 20° SSE 03:16:33 10° SSE
BREEZE-M DEB (TANK) 4.3 02:56:43 10° W 03:12:26 75° S 03:16:39 10° ESE
SeaSat 1 4.4 03:08:39 10° NE 03:12:36 23° ESE 03:16:32 10° SSE
Unknown 3.5 03:17:24 60° SE 03:17:24 60° SE 03:20:59 10° ENE
IRIDIUM 106 4.3 03:16:31 48° SW 03:17:46 63° W 03:22:58 10° N
Cosmos 2084 Rocket 3.9 03:14:30 10° NW 03:18:56 64° NE 03:23:17 10° ESE
Cosmos 1400 Rocket 4.0 03:17:05 19° SSE 03:19:23 38° E 03:23:01 10° NNE
IRS-1C 4.4 03:15:03 10° N 03:20:12 49° WNW 03:21:22 42° WSW
Unknown 3.1 03:20:42 81° E 03:20:42 81° E 03:24:05 10° ENE
ATLAS 5 CENTAUR R/B 3.3 03:19:04 22° NW 03:20:59 28° NNW 03:25:36 10° NE
CZ-4B R/B 3.4 03:24:09 19° NW 03:24:09 19° NW 03:25:21 10° NNW
ATLAS 5 CENTAUR R/B 1.4 03:23:24 70° N 03:23:24 70° N 03:27:27 10° NE
Meteor 1-25 Rocket 4.5 03:20:12 10° NNW 03:25:38 46° W 03:27:00 38° SW
Cosmos 1689 Rocket 4.3 03:28:53 18° NNW 03:28:53 18° NNW 03:29:49 10° NNW
Unknown 4.3 03:26:35 38° S 03:27:13 41° SSE 03:31:02 10° ENE
Falcon 9 debris 3.0 03:30:21 75° WNW 03:30:35 82° N 03:34:04 10° ENE
Cosmos 1125 Rocket 3.8 03:26:41 10° NW 03:31:41 42° WSW 03:32:57 36° SW
Cosmos 2263 4.4 03:29:57 25° SSW 03:33:16 70° ESE 03:38:52 10° NE
Unknown 4.4 03:33:02 34° S 03:34:00 40° SSE 03:37:51 10° E
Meteor 1-5 Rocket 4.4 03:32:15 10° N 03:37:41 72° ENE 03:43:15 10° SSE
Unknown 4.5 03:37:05 31° S 03:38:17 39° SSE 03:42:10 10° E
Meteor 1-14 Rocket 4.4 03:33:39 10° NNW 03:38:57 47° W 03:41:57 24° SSW
Cosmos 1536 4.3 03:35:24 10° N 03:39:10 38° ENE 03:42:54 10° SE
COSMOS 2487 3.2 03:36:00 10° NNW 03:38:21 36° NW 03:38:21 36° NW
Unknown 4.5 03:38:41 31° S 03:39:57 40° SSE 03:43:50 10° ENE
Cosmos 1340 4.1 03:37:08 10° N 03:40:45 40° ENE 03:44:20 10° SE
SL-24 DEB 4.2 03:36:32 11° S 03:41:02 84° W 03:45:47 10° N
Unknown 4.4 03:40:14 31° SSW 03:41:33 41° SSE 03:45:28 10° ENE
Cosmos 1707 Rocket 3.4 03:39:26 30° SSW 03:41:34 78° W 03:46:00 10° N
Unknown 3.1 03:42:05 53° WNW 03:42:40 70° N 03:45:54 10° E
Cosmos 1346 Rocket 3.9 03:39:00 10° N 03:43:00 47° ENE 03:46:58 10° SSE
CZ-2C R/B 2.8 03:39:10 10° N 03:43:08 60° WNW 03:44:16 41° SW
Unknown 4.4 03:43:28 31° SSW 03:44:54 43° SSE 03:48:51 10° ENE
Cosmos 220 Rocket 3.9 03:44:21 30° SSW 03:46:27 88° ESE 03:50:45 10° NNE
Unknown 4.2 03:45:22 32° SSW 03:46:49 47° SSE 03:50:49 10° ENE
PSLV R/B 4.1 03:43:07 10° NNE 03:47:29 59° ESE 03:51:46 10° S
Cosmos 1733 Rocket 3.0 03:43:18 10° NNW 03:47:47 82° W 03:52:14 10° S
Meteor 1-26 Rocket 4.4 03:45:39 30° SW 03:48:02 49° WNW 03:53:27 10° N
Unknown 4.2 03:46:52 31° SSW 03:48:23 48° SSE 03:52:24 10° ENE
Unknown 4.3 03:47:07 30° SSW 03:48:41 46° SSE 03:52:39 10° ENE
IDEFIX/ARIANE 42P 3.0 03:44:11 10° NNE 03:49:26 63° ESE 03:54:39 10° S
Unknown 4.2 03:49:52 29° SSW 03:51:31 46° SSE 03:55:30 10° ENE
NOSS 3-2 (A) 3.7 03:48:18 28° WSW 03:51:41 64° NW 03:58:34 10° NE
Unknown 3.2 03:51:27 40° W 03:52:36 76° N 03:56:10 10° E
PSLV R/B 3.8 03:49:30 10° S 03:53:38 72° WSW 03:57:46 10° NNW
Unknown 4.2 03:53:03 28° SSW 03:54:50 48° SSE 03:58:51 10° ENE
NOSS 3-2 (C) 3.5 03:51:16 26° SW 03:54:55 79° NW 04:01:50 10° NE
Cosmos 1092 Rocket 3.9 03:50:12 13° SSW 03:55:41 73° WNW 04:01:52 10° N
Unknown 4.2 03:54:39 28° SSW 03:56:29 49° SSE 04:00:30 10° ENE
Cosmos 1606 4.2 03:56:32 21° WNW 03:56:32 21° WNW 03:59:33 10° NNW
ATLAS 3B R/B 2.6 03:52:06 22° SW 03:56:40 87° SE 04:03:19 10° NE
Cosmos 2227 Rocket 4.1 03:52:30 10° NNW 03:57:35 32° NE 04:02:37 10° ESE
Unknown 4.1 03:56:15 27° SSW 03:58:09 50° SSE 04:02:11 10° ENE
Cosmos 2219 4.4 03:53:03 10° NNW 03:58:33 45° NE 04:03:58 10° ESE
Unknown 4.1 03:57:51 27° SW 03:59:49 51° SSE 04:03:51 10° ENE
USA 81 4.2 03:56:13 10° S 04:01:29 80° E 04:06:49 10° N
ADEOS II 2.9 03:57:22 10° N 04:02:01 33° WNW 04:04:18 23° WSW
Unknown 4.0 04:04:13 25° SW 04:06:25 55° SSE 04:10:29 10° ENE
Cosmos 1656 Rocket 3.8 04:02:07 12° SSW 04:07:29 77° ESE 04:13:09 10° NNE
Cosmos 2369 Rocket 2.4 04:03:58 22° SW 04:07:35 57° NW 04:13:11 10° NNE
Unknown 4.0 04:05:47 24° SW 04:08:02 56° SSE 04:12:07 10° ENE
Cosmos 2297 Rocket 3.8 04:03:20 10° NNW 04:08:35 37° NE 04:13:49 10° ESE
Unknown 4.0 04:07:25 24° SW 04:09:45 57° SSE 04:13:50 10° ENE
Unknown 3.9 04:09:00 23° SW 04:11:23 58° SSE 04:15:28 10° ENE
Iridium 4 Rocket 3.1 04:08:29 10° SSW 04:12:50 55° W 04:17:00 10° N
Unknown 3.9 04:10:38 23° SW 04:13:04 59° SSE 04:17:10 10° ENE
FALCON 9 DEB 3.3 04:11:28 24° W 04:13:27 72° N 04:16:59 10° E
Aureole 2 Rocket 3.5 04:11:25 10° S 04:13:52 32° ESE 04:16:18 10° NE
Resurs 1-4 Rocket 4.1 04:12:08 10° NNW 04:14:17 13° NW 04:16:15 10° WNW
Unknown 3.2 04:12:36 24° W 04:14:34 71° N 04:18:02 10° E
Cosmos 1500 3.0 04:11:49 10° NNW 04:15:33 67° W 04:19:16 10° S
Unknown 3.9 04:13:49 22° SW 04:16:23 61° SSE 04:20:29 10° ENE
USA 267 3.4 04:09:56 10° ESE 04:16:29 81° NNE 04:23:04 10° WNW
Meteor 2-6 Rocket 4.3 04:11:03 10° SSW 04:16:52 66° WNW 04:22:51 10° N
Starlink (trailer) 3.8 04:15:21 21° SW 04:17:58 62° SSE 04:22:05 10° ENE
Spot 2 4.3 04:14:53 10° N 04:19:31 56° WNW 04:23:32 12° SW
Unknown 3.8 04:17:02 20° SW 04:19:44 64° SSE 04:23:51 10° ENE
Cosmos 1782 Rocket 4.4 04:16:11 10° N 04:20:30 54° ENE 04:24:48 10° SSE
Unknown 3.8 04:18:35 20° SW 04:21:21 65° SSE 04:25:27 10° ENE
ATLAS CENTAUR R/B 3.3 04:18:29 10° NNW 04:22:41 32° NNE 04:26:37 10° E
SL-4 R/B 2.9 04:22:12 21° WSW 04:23:07 23° SSW 04:26:00 10° SSE
Meteor 1-27 Rocket 3.9 04:18:32 10° S 04:24:25 86° E 04:30:14 10° NNE
Unknown 3.4 04:22:42 20° WSW 04:25:15 87° NNW 04:29:06 10° ENE
Unknown 3.4 04:22:42 20° WSW 04:25:18 88° SSE 04:29:13 10° ENE
Unknown 3.7 04:24:58 18° WSW 04:27:58 69° SSE 04:32:06 10° ENE
Unknown 2.5 04:27:36 19° WNW 04:29:31 80° SSW 04:32:24 10° ESE
Unknown 3.7 04:26:38 17° WSW 04:29:42 70° SSE 04:33:50 10° ENE
Unknown 3.7 04:27:10 17° WSW 04:30:15 71° SSE 04:34:24 10° ENE
Sich 1 Rocket 4.3 04:27:29 10° N 04:31:53 58° ENE 04:36:18 10° SSE
Meteor 1-10 Rocket 4.5 04:26:56 10° SSW 04:32:44 57° WNW 04:38:37 10° N
Unknown 3.7 04:29:47 16° WSW 04:32:58 72° SSE 04:37:07 10° ENE
Cosmos 2278 Rocket 4.4 04:31:19 10° NW 04:33:53 13° NNW 04:36:27 10° N
Meteor 1-11 Rocket 3.9 04:29:04 10° NNW 04:34:29 49° W 04:39:47 10° SSW
Unknown 3.7 04:31:30 16° WSW 04:34:45 75° SSE 04:38:54 10° ENE
Cosmos 1538 Rocket 4.4 04:29:40 10° SSW 04:34:47 66° ESE 04:39:56 10° NNE
Unknown 3.7 04:32:28 16° WSW 04:35:46 74° SSE 04:39:55 10° ENE
Cosmos 1553 Rocket 4.0 04:29:36 10° NNW 04:35:47 61° W 04:41:51 10° S
Cosmos 1703 Rocket 4.0 04:32:49 10° S 04:37:13 67° E 04:41:37 10° NNE
CZ-2C R/B 2.7 04:32:32 10° NNE 04:37:24 72° ESE 04:42:25 10° S
Cosmos 1315 Rocket 2.8 04:33:26 10° SSW 04:37:34 76° WNW 04:41:44 10° N
Unknown 3.7 04:34:42 15° WSW 04:38:05 77° SSE 04:42:14 10° ENE
CENTAUR R/B 2.8 04:32:41 13° WSW 04:38:20 67° NW 04:45:45 10° NE
Unknown 3.7 04:36:11 15° WSW 04:39:38 76° SSE 04:43:47 10° ENE
Unknown 3.7 04:36:48 14° WSW 04:40:15 77° SSE 04:44:25 10° ENE
Cosmos 1743 4.0 04:36:34 10° N 04:40:22 47° ENE 04:44:08 10° SSE
Cosmos 2242 Rocket 3.6 04:36:08 10° SSW 04:40:39 67° WNW 04:45:09 10° N
Cosmos 1812 2.8 04:37:49 10° SSW 04:41:36 55° WNW 04:45:26 10° N
Unknown 3.7 04:39:16 14° WSW 04:42:51 77° SSE 04:47:00 10° ENE
Lacrosse 5 2.1 04:40:21 10° WNW 04:45:16 52° SW 04:50:09 10° SE
Unknown 3.7 04:42:34 13° WSW 04:46:16 80° SSE 04:50:26 10° ENE
ADEOS 4.0 04:42:37 10° N 04:47:34 45° WNW 04:52:31 10° SW
Unknown 3.7 04:44:09 12° WSW 04:47:55 81° SSE 04:52:04 10° ENE
USA 102 3.2 04:44:33 10° NNE 04:48:50 24° ENE 04:49:34 14° ESE
ARIANE 5 R/B 4.3 04:46:31 10° NNW 04:49:26 16° NW 04:52:20 10° W
Cosmos 1862 Rocket 4.1 04:45:20 10° SW 04:49:32 40° WNW 04:53:48 10° N
Unknown 3.6 04:45:45 12° WSW 04:49:35 82° SSE 04:53:44 10° ENE
SeaSat 1 2.5 04:45:36 10° NNE 04:50:32 69° NW 04:55:26 10° SW
H-2A R/B 2.7 04:47:26 10° N 04:51:07 43° WNW 04:54:45 10° SW
Unknown 3.6 04:47:22 12° WSW 04:51:16 83° SSE 04:55:26 10° ENE
Cosmos 1943 Rocket 3.2 04:49:34 10° W 04:54:16 29° NW 04:59:07 10° NNE
Unknown 3.6 04:50:35 11° WSW 04:54:36 85° SSE 04:58:46 10° ENE
Unknown 3.5 04:51:38 10° W 04:55:21 74° N 04:59:06 10° E
Cosmos 2026 Rocket 4.5 04:49:29 10° SW 04:55:25 42° WNW 05:01:26 10° N
Cosmos 1400 Rocket 4.1 04:52:54 10° WSW 04:56:01 22° WNW 04:59:09 10° NNW
Unknown 3.6 04:52:13 10° WSW 04:56:18 86° SSE 05:00:27 10° ENE
Unknown 3.3 04:54:23 10° W 04:57:55 74° N 05:01:27 10° E
Unknown 3.6 04:53:45 10° WSW 04:57:55 87° SSE 05:02:05 10° ENE
Unknown 3.6 04:55:22 10° WSW 04:59:32 87° SSE 05:03:42 10° ENE
PSLV R/B 4.3 04:56:22 10° NNE 05:00:26 68° ESE 05:04:23 10° S
Helios 1A Rocket 4.4 04:57:37 10° NNE 05:01:30 42° E 05:05:24 10° S
Unknown 3.6 04:57:20 10° WSW 05:01:30 89° SSE 05:05:41 10° ENE
Unknown 3.6 04:58:35 10° WSW 05:02:44 87° SSE 05:06:55 10° ENE
Cosmos 44 3.6 04:57:58 10° WSW 05:02:50 52° NW 05:07:26 10° NE
PAYLOAD A 3.9 04:59:46 10° N 05:04:30 57° WNW 05:09:06 10° SSW
Meteor 1-31 Rocket 2.8 05:00:46 10° N 05:04:41 69° WNW 05:08:33 10° SSW
Unknown 3.6 05:01:52 10° WSW 05:06:01 89° S 05:10:11 10° ENE
Unknown 3.6 05:02:11 10° W 05:06:15 84° N 05:10:19 10° ENE
Okean 1-7 3.0 05:02:15 10° SSW 05:06:40 77° W 05:11:05 10° N
ATLAS 5 CENTAUR R/B 3.9 05:03:02 10° NW 05:07:11 24° N 05:11:49 10° ENE
Cosmos 1975 3.4 05:03:25 10° N 05:07:29 67° ENE 05:11:32 10° SSE
Unknown 3.7 05:03:33 10° WSW 05:07:43 90° SSE 05:11:53 10° ENE
Falcon 9 debris 3.2 05:04:15 10° WNW 05:07:44 79° N 05:11:14 10° E
Okean 1 4.0 05:03:50 10° S 05:07:44 61° E 05:11:41 10° NNE
Unknown 3.7 05:05:23 10° WSW 05:09:32 87° NNW 05:13:42 10° ENE
Meteor PRIRODA 3.6 05:06:06 10° NNE 05:09:49 87° W 05:13:30 10° SSW
Cosmos 1666 3.1 05:06:50 10° NNW 05:10:23 40° W 05:13:56 10° SSW
Unknown 3.7 05:06:53 10° WSW 05:11:02 89° NNW 05:15:12 10° ENE
Cosmos 1655 Rocket 4.1 05:05:42 10° SSW 05:11:48 56° WNW 05:18:01 10° N
